Wetbulb
36.76 37.29 37.83 38.37 38.33 38.28 38.23 38.59 39.10 39.19 39.05 38.95 38.90 39.08 39.17 39.13 38.95 39.08 39.35 39.62 39.67 39.80 40.03 40.34 40.71 41.02 41.30 41.34 41.01 40.67 40.45 40.33 40.46 40.77 40.95 40.75 40.73 40.90 41.12 41.21 41.55 41.86 42.17 42.48 43.06 43.46 43.73 43.83 43.87 43.92 43.92 43.95 43.91 43.77 43.77 43.64 43.46 43.33 43.20 43.20 43.42 43.52 43.43 43.20 43.06 43.20 43.60 44.09 45.08
36.13 36.58 37.17 37.84 37.89 37.66 37.43 37.48 37.88 38.15 38.33 38.46 38.59 38.73 38.78 38.78 38.64 38.59 38.68 38.86 39.18 39.54 39.76 40.00 40.22 40.45 40.76 40.98 40.88 40.63 40.24 39.90 39.95 40.07 40.27 40.26 40.51 40.64 40.81 40.81 41.03 41.25 41.55 41.85 42.30 42.79 43.10 43.20 43.15 43.11 43.06 43.19 43.14 43.14 43.10 43.10 42.88 42.52 42.25 41.99 42.53 42.84 42.89 42.67 42.66 42.84 43.20 43.60 44.36
35.77 36.04 36.27 36.31 36.40 36.40 36.35 36.26 36.40 36.71 37.03 37.57 37.90 38.06 38.09 38.15 38.09 38.19 38.22 38.44 38.80 39.07 39.20 39.38 39.69 39.96 40.28 40.52 40.69 40.45 40.24 39.86 39.73 39.63 39.66 39.79 40.01 40.17 40.22 40.33 40.38 40.68 41.02 41.32 41.76 42.21 42.66 42.84 42.67 42.41 42.31 42.21 42.28 42.42 42.56 42.67 42.40 41.91 41.46 41.24 41.68 42.04 42.27 42.27 42.22 42.40 42.62 42.97 43.56
35.30 35.47 35.59 35.64 35.61 35.70 35.77 35.90 35.91 36.11 36.33 36.73 36.90 37.06 37.17 37.28 37.36 37.48 37.62 37.94 38.11 38.28 38.44 38.72 39.15 39.60 39.97 40.17 40.24 40.18 40.03 39.96 39.61 39.33 39.22 39.40 39.53 39.74 39.83 39.91 39.86 39.99 40.23 40.58 41.05 41.58 42.03 42.27 42.10 41.87 41.46 41.21 41.20 41.35 41.75 42.22 41.92 41.39 41.04 40.90 41.16 41.24 41.45 41.72 41.68 41.74 41.83 42.00 42.70
34.73 34.99 35.16 35.32 35.48 35.66 35.79 35.93 35.77 35.70 35.77 36.01 36.09 36.11 36.28 36.51 36.77 36.92 37.03 37.18 37.27 37.54 37.97 38.41 38.73 39.17 39.49 39.78 39.84 39.74 39.55 39.44 39.54 39.17 38.75 38.83 39.07 39.21 39.43 39.43 39.46 39.54 39.66 39.97 40.31 40.74 41.15 41.43 41.43 41.20 40.95 40.63 40.44 40.48 40.97 41.79 41.50 40.99 40.65 40.63 40.52 40.54 40.56 40.85 41.01 40.98 40.90 40.98 41.63
34.22 34.55 34.74 35.04 35.24 35.47 35.73 35.82 35.69 35.61 35.53 35.57 35.26 35.22 35.35 35.69 35.84 36.02 36.06 36.16 36.67 37.20 37.85 38.40 38.55 38.81 39.04 39.18 39.44 39.42 39.22 38.77 38.73 38.51 38.39 38.41 38.63 38.86 39.02 38.86 39.22 39.18 39.10 39.19 39.48 39.91 40.26 40.43 40.45 40.36 40.21 39.98 39.56 39.51 39.87 40.64 40.85 40.56 40.18 39.93 39.94 39.89 39.78 39.67 40.03 40.04 39.87 39.77 40.12
34.03 34.21 34.32 34.54 34.70 34.88 35.05 35.10 35.15 35.20 35.02 34.83 34.40 34.29 34.56 34.90 35.14 35.33 35.44 35.82 36.21 36.77 37.29 37.76 37.74 37.86 38.15 38.45 38.81 38.92 38.78 38.38 38.12 37.95 37.85 37.74 37.95 38.27 38.51 38.65 38.78 38.74 38.62 38.54 38.62 38.87 39.16 39.37 39.17 39.08 39.16 39.08 38.62 38.43 38.60 39.00 39.42 39.51 39.38 39.14 39.18 39.10 38.99 38.77 39.06 39.07 38.90 38.61 38.77
34.03 34.16 34.20 34.35 34.40 34.40 34.34 34.42 34.40 34.35 34.23 34.17 33.96 34.03 34.16 34.54 34.65 34.87 35.22 35.45 35.64 36.04 36.41 37.04 36.90 37.07 37.49 37.82 38.17 38.44 38.39 38.17 37.73 37.49 37.40 37.22 37.30 37.53 37.76 38.06 38.11 38.07 38.13 38.05 37.85 37.76 37.89 38.12 37.94 37.77 37.70 37.63 37.41 37.26 37.28 37.56 37.67 37.91 38.08 38.21 38.37 38.39 38.41 38.20 38.29 38.18 37.97 37.77 37.84
33.58 33.81 33.98 34.14 34.09 33.92 33.87 33.82 33.84 33.64 33.47 33.41 33.58 33.74 34.03 34.36 34.21 34.36 34.73 34.97 35.54 35.89 36.20 36.46 36.55 36.68 36.93 37.22 37.59 37.94 38.17 38.14 37.61 37.21 36.96 36.99 36.91 36.93 36.97 37.14 37.22 37.39 37.49 37.52 37.19 36.85 36.64 36.72 36.62 36.54 36.64 36.45 36.17 36.09 36.24 36.17 36.14 36.29 36.61 37.09 37.35 37.56 37.63 37.57 37.36 37.24 37.11 37.11 36.95
32.75 33.07 33.33 33.40 33.49 33.55 33.58 33.12 33.16 33.06 32.91 32.97 33.06 33.56 34.19 34.84 34.15 34.06 34.42 35.02 35.54 35.55 35.49 35.84 36.06 36.13 36.24 36.54 36.96 37.39 37.79 38.08 37.75 37.33 36.91 36.61 36.50 36.35 36.20 36.33 36.37 36.38 36.53 36.72 36.49 36.16 35.78 35.49 35.30 35.35 35.47 35.49 35.28 35.18 35.18 35.28 35.05 35.03 35.28 35.82 36.16 36.38 36.58 36.62 36.56 36.40 36.30 36.33 36.17
32.15 32.54 32.74 32.72 32.98 33.33 33.34 32.61 32.70 32.70 32.79 32.68 32.96 33.27 33.71 34.14 33.74 33.86 34.31 34.91 34.78 34.75 34.88 35.49 35.66 35.64 35.70 36.03 36.37 36.90 37.39 37.71 37.77 37.39 36.80 36.21 36.08 35.88 35.73 35.73 35.68 35.72 35.72 35.87 35.82 35.52 35.05 34.67 34.40 34.33 34.46 34.64 34.68 34.62 34.57 34.62 34.36 34.22 34.25 34.60 34.91 35.16 35.30 35.55 35.79 35.75 35.58 35.51 35.48
31.16 31.59 31.88 32.07 32.57 32.79 32.66 32.35 32.40 32.51 32.55 32.62 33.01 33.27 33.40 33.49 33.66 34.02 34.21 34.10 33.92 34.15 34.58 35.21 35.40 35.42 35.47 35.66 35.89 36.37 36.82 37.26 37.50 37.35 36.77 36.04 35.61 35.42 35.28 35.27 35.17 35.16 35.07 35.20 35.19 34.97 34.44 33.97 33.74 33.57 33.63 33.83 34.05 34.14 34.03 33.96 33.87 33.65 33.51 33.65 33.91 34.03 34.14 34.57 34.96 35.18 35.18 34.95 34.90
30.31 30.66 30.97 31.41 31.88 31.93 31.85 31.73 31.80 31.86 31.96 32.07 32.41 32.67 32.96 33.19 33.66 33.77 33.55 33.16 33.31 33.73 34.22 34.83 35.17 35.27 35.18 35.24 35.32 35.62 35.93 36.50 37.00 37.11 36.79 36.12 35.36 35.00 34.77 34.71 34.62 34.57 34.60 34.65 34.66 34.40 34.00 33.57 33.35 33.13 33.00 33.09 33.29 33.46 33.51 33.47 33.28 33.02 32.88 32.94 33.02 33.09 33.25 33.68 34.14 34.51 34.62 34.46 34.23
30.14 30.40 30.71 30.96 31.31 31.42 31.41 31.25 31.26 31.21 31.22 31.29 31.51 31.82 32.08 32.48 33.18 33.16 32.86 32.34 32.70 33.00 33.37 33.90 34.43 34.83 35.01 34.97 34.94 35.05 35.26 35.70 36.19 36.51 36.41 36.09 35.21 34.61 34.17 34.02 33.90 33.89 33.95 33.98 33.96 33.83 33.51 33.18 33.05 32.91 32.73 32.65 32.74 32.92 33.09 33.07 32.84 32.65 32.54 32.29 32.32 32.40 32.65 32.93 33.42 33.79 33.94 33.80 33.65
29.31 29.67 29.99 30.30 30.44 30.61 30.67 30.67 30.73 30.61 30.53 30.46 30.75 31.00 31.41 31.80 32.53 32.65 32.42 31.83 32.10 32.28 32.53 32.79 33.13 33.71 34.34 34.79 34.65 34.69 34.88 35.05 35.40 35.70 35.89 35.84 35.06 34.31 33.62 33.33 33.25 33.15 33.18 33.21 33.25 33.25 33.20 33.02 32.92 32.78 32.55 32.29 32.36 32.49 32.58 32.66 32.60 32.45 32.27 32.12 32.12 32.12 32.25 32.49 32.76 32.93 33.14 33.16 33.05
28.33 28.61 28.95 29.14 29.24 29.36 29.56 29.70 29.98 29.97 29.91 29.82 30.21 30.55 30.85 31.10 31.85 32.27 32.27 31.80 31.81 31.79 31.93 31.86 31.96 32.31 32.98 34.03 34.09 34.12 34.14 34.14 34.52 34.95 35.30 35.62 35.06 34.31 33.51 32.98 32.76 32.54 32.44 32.36 32.34 32.45 32.61 32.65 32.65 32.51 32.24 32.05 31.91 31.77 31.77 31.85 31.76 31.58 31.47 31.46 31.64 31.69 31.89 32.04 32.12 32.16 32.43 32.76 32.65
27.55 27.81 28.10 28.27 28.31 28.32 28.46 28.70 29.06 29.29 29.34 29.45 29.64 30.02 30.34 30.62 31.20 31.76 32.05 31.87 31.54 31.44 31.40 31.41 31.61 31.67 31.94 32.63 33.20 33.38 33.23 33.14 33.55 33.92 34.43 34.99 35.16 34.58 33.69 32.71 32.40 32.05 31.74 31.54 31.39 31.34 31.54 31.76 31.98 31.89 31.76 31.52 31.24 31.09 30.91 30.82 30.67 30.45 30.36 30.49 30.72 30.80 30.97 31.29 31.27 31.39 31.70 32.16 32.25
26.80 27.08 27.38 27.60 27.62 27.77 27.87 28.05 28.31 28.52 28.73 29.00 29.10 29.31 29.61 29.99 30.29 30.66 31.07 31.23 30.85 30.56 30.42 30.60 30.90 31.04 31.09 31.28 32.12 32.67 32.74 32.25 32.53 32.92 33.47 34.14 34.99 34.91 34.22 33.00 32.36 31.88 31.32 30.99 30.68 30.54 30.52 30.66 30.87 30.91 30.94 30.76 30.57 30.40 30.22 30.00 29.76 29.71 29.64 29.73 29.73 29.78 29.93 30.07 30.31 30.60 30.81 31.04 31.55
26.13 26.42 26.63 26.76 26.88 27.16 27.42 27.77 27.83 27.91 28.07 28.35 28.57 28.79 29.05 29.31 29.52 29.58 29.72 29.82 29.88 29.61 29.33 29.44 29.81 30.01 30.20 30.50 31.09 31.95 32.41 31.96 32.05 32.38 32.82 33.38 34.31 34.93 35.01 34.11 33.11 32.25 31.52 30.88 30.51 30.32 30.19 30.26 30.30 30.30 30.25 30.12 30.07 29.98 29.89 29.64 29.41 29.36 29.32 29.23 29.14 29.10 29.10 29.07 29.29 29.53 29.82 30.02 30.46
25.42 25.63 25.79 26.14 26.30 26.52 26.76 27.03 27.18 27.35 27.69 27.94 27.95 28.09 28.22 28.38 28.51 28.49 28.49 28.53 28.60 28.42 28.15 28.10 28.25 28.55 28.91 29.34 29.94 30.65 31.40 31.69 31.64 31.89 32.50 32.84 33.36 34.20 34.87 35.00 34.06 33.07 32.09 31.24 30.85 30.55 30.48 30.37 30.38 30.33 30.15 29.93 29.62 29.31 29.09 28.96 28.61 28.43 28.37 28.43 28.30 28.17 28.04 27.95 28.04 28.30 28.59 28.95 29.25
24.73 24.91 25.12 25.38 25.59 25.85 26.02 26.25 26.61 26.85 27.03 27.16 27.16 27.10 27.10 27.15 27.05 27.09 27.09 27.49 27.49 27.31 27.02 26.80 26.70 26.81 27.15 27.60 28.35 29.04 29.85 30.79 30.70 31.07 31.74 32.38 32.69 33.57 34.49 35.02 34.55 33.84 32.81 31.51 30.75 30.31 30.04 29.88 29.71 29.57 29.47 29.27 28.80 28.45 28.10 27.83 27.48 27.19 27.13 27.27 27.27 27.22 27.19 27.19 27.23 27.41 27.73 28.03 28.40
24.02 24.22 24.40 24.62 25.08 25.46 25.73 25.72 25.93 26.02 26.04 26.06 25.99 26.02 26.02 25.98 25.86 25.91 26.07 26.47 26.54 26.37 26.08 25.95 25.72 25.61 25.83 26.18 26.71 27.36 28.12 29.13 29.35 29.88 30.59 31.13 31.63 32.66 33.87 34.73 34.53 34.33 33.76 32.34 31.01 30.03 29.50 29.09 28.83 28.64 28.35 28.10 27.73 27.61 27.60 27.39 27.06 26.74 26.62 26.62 26.65 26.71 26.75 26.85 26.90 27.04 27.28 27.53 27.85
23.32 23.67 23.93 24.09 24.39 24.96 25.34 25.01 24.88 24.86 24.89 24.75 24.81 24.79 24.85 24.72 24.75 24.88 24.97 25.14 25.46 25.34 25.12 25.29 25.03 24.75 24.70 25.00 25.52 26.05 26.68 27.46 28.13 28.78 29.41 30.07 30.66 31.53 32.65 33.78 33.79 34.14 34.36 33.78 32.43 30.87 29.42 28.37 27.79 27.49 27.20 26.92 26.35 26.18 26.25 26.21 26.06 25.93 25.74 25.71 25.65 25.77 25.97 26.15 26.23 26.31 26.37 26.53 26.85
22.63 23.02 23.27 23.32 23.17 23.28 23.54 23.68 23.68 23.64 23.56 23.43 23.43 23.52 23.55 23.61 23.65 23.77 23.81 23.78 23.74 23.67 23.70 24.11 24.05 23.88 23.70 23.92 24.27 24.80 25.36 25.99 26.92 27.75 28.57 29.77 30.59 31.36 32.33 33.85 34.29 34.46 34.65 35.10 34.73 33.44 31.35 29.03 27.40 26.67 26.36 26.06 25.60 25.20 24.86 24.77 24.42 24.18 24.08 24.12 24.01 24.07 24.20 24.32 24.28 24.39 24.47 24.54 24.90
21.73 22.03 22.19 21.93 21.97 22.06 22.20 22.16 22.12 22.05 21.94 21.99 22.16 22.31 22.44 22.44 22.69 22.88 22.88 22.66 22.34 22.15 22.06 22.19 22.72 23.34 23.63 23.17 23.37 23.66 24.03 24.38 25.24 26.53 27.97 28.99 29.90 30.80 31.78 32.97 34.71 35.30 35.47 35.84 36.71 36.66 35.46 33.19 30.14 27.44 25.34 24.40 24.38 24.37 24.19 23.65 23.46 23.41 23.50 23.71 23.57 23.32 23.22 23.19 23.28 23.44 23.63 23.63 23.68
20.59 20.68 20.62 20.47 20.51 20.60 20.54 20.46 20.44 20.38 20.27 20.27 20.63 20.72 20.69 20.80 21.29 21.44 21.38 21.25 20.91 20.69 20.80 21.31 22.49 24.00 24.54 22.66 22.56 22.75 23.32 24.27 24.57 25.66 26.97 27.75 28.56 29.50 30.49 31.32 33.89 35.56 36.39 36.48 36.83 36.98 36.71 36.15 34.17 30.56 26.49 23.00 23.19 23.33 23.35 22.91 22.86 22.95 23.02 23.22 23.23 23.00 22.78 22.87 22.97 23.19 23.44 23.63 23.34
19.19 19.04 18.87 18.98 19.16 19.04 18.83 18.59 18.63 18.68 18.68 18.68 18.94 19.03 19.08 19.39 20.33 20.38 20.05 19.70 19.39 19.44 19.89 20.77 21.47 23.37 24.39 22.21 21.63 21.57 22.21 23.97 24.55 24.98 25.46 26.36 27.06 28.03 28.99 29.83 31.65 34.25 36.49 37.36 37.02 36.77 36.52 36.21 35.43 33.43 29.93 24.86 22.95 22.47 22.66 22.44 22.40 22.44 22.49 22.77 22.51 22.26 22.00 21.82 22.00 22.62 23.21 23.18 23.06
17.27 17.05 17.01 17.62 17.67 17.40 17.15 17.10 17.46 17.57 17.53 17.31 17.40 17.84 18.43 18.73 19.22 19.22 18.95 18.55 18.77 19.17 19.67 19.98 20.49 21.44 22.19 21.99 21.08 20.45 20.41 21.28 22.12 22.56 23.14 24.38 24.99 26.32 27.62 28.47 29.51 32.76 36.33 38.02 37.12 36.53 36.12 35.81 35.34 34.43 32.50 28.69 24.10 21.99 21.41 21.04 21.48 21.53 21.53 21.97 21.84 21.29 20.85 20.99 21.69 22.01 22.13 22.15 22.81
15.16 15.11 15.33 15.94 15.90 15.90 15.99 16.12 16.13 15.91 15.80 16.02 16.64 17.37 18.21 18.77 18.77 18.42 18.11 18.07 18.07 18.37 18.56 18.47 19.78 20.58 20.67 20.10 19.45 19.45 19.71 19.80 20.58 21.16 21.87 22.85 23.54 24.49 25.76 27.54 28.23 31.87 36.14 38.67 37.21 36.42 35.80 35.40 35.01 34.41 33.53 31.89 27.17 23.17 20.74 20.55 20.23 20.01 20.15 21.20 20.94 20.76 20.68 20.89 21.38 21.64 21.79 21.79 22.37
13.56 13.78 14.13 14.48 14.57 14.75 14.80 14.62 14.44 14.63 14.94 15.58 16.13 17.01 17.90 18.55 18.07 17.68 17.32 17.06 17.13 17.76 18.10 17.54 18.11 18.50 18.47 17.84 18.21 19.01 19.74 19.61 20.18 20.58 20.69 20.54 22.54 24.59 26.19 26.47 27.05 30.99 35.89 38.92 37.41 36.43 35.76 35.17 34.69 34.13 33.59 32.78 29.27 24.66 20.99 20.43 18.99 18.68 18.96 19.69 19.56 19.44 19.52 19.84 20.11 20.55 21.08 21.79 22.13
12.54 12.90 13.34 13.82 13.82 13.86 13.87 13.78 13.91 14.09 14.40 15.02 15.69 16.66 17.37 17.24 16.91 16.47 16.12 15.99 16.99 18.56 19.25 17.40 17.17 17.19 17.32 17.35 17.67 17.98 18.38 18.56 19.17 19.70 19.92 19.61 21.47 22.70 23.54 24.16 25.10 29.94 35.71 39.07 37.58 36.50 35.73 35.11 34.51 34.01 33.44 32.74 30.14 25.83 22.53 23.10 19.93 18.45 18.11 18.45 18.98 19.31 19.70 20.51 20.69 21.07 21.23 21.03 21.53
11.70 12.10 12.54 13.21 13.20 13.20 13.20 12.98 13.20 13.51 13.95 14.53 15.33 16.00 16.26 15.93 15.85 15.54 15.48 16.32 16.96 17.01 16.87 16.78 16.74 16.87 17.10 17.18 17.19 17.48 17.88 18.21 18.91 19.78 20.23 19.70 19.04 19.12 20.14 22.50 23.68 29.23 35.34 38.60 37.83 36.76 35.73 35.00 34.44 33.87 33.25 32.64 30.55 26.03 23.44 27.17 23.37 20.03 18.07 18.45 19.34 19.74 20.27 21.66 21.57 21.19 20.93 21.19 21.08
11.04 11.48 11.88 12.37 12.63 12.63 12.63 12.54 12.76 13.29 13.95 14.53 14.97 15.29 15.40 15.31 15.14 15.01 15.57 16.99 16.73 15.82 15.19 15.90 15.89 15.91 16.04 16.35 16.57 17.15 17.84 18.43 18.34 19.25 20.09 19.74 19.04 19.42 20.48 21.95 23.64 29.22 35.01 37.67 38.03 37.17 35.91 35.07 34.33 33.64 33.00 32.44 29.90 26.06 24.10 26.97 26.62 23.26 19.70 18.81 20.00 20.80 21.07 20.81 21.22 21.37 21.54 22.04 22.26
10.51 11.04 11.61 11.92 12.37 12.32 12.14 12.19 12.50 13.25 14.10 14.70 14.84 14.94 14.85 14.43 14.57 15.21 16.46 18.36 16.92 15.54 14.74 15.11 14.94 14.89 15.02 15.28 15.68 16.56 17.89 19.52 17.99 17.32 17.45 17.99 18.50 19.57 20.53 20.95 22.81 28.61 34.50 36.50 38.05 37.53 36.11 35.05 34.17 33.42 32.67 32.02 29.67 27.60 26.37 26.74 27.29 25.64 23.26 21.47 22.31 22.69 22.85 23.16 23.22 23.24 23.48 24.03 24.70
9.67 10.51 11.30 11.57 11.57 11.52 11.52 11.68 12.16 13.05 13.88 14.35 14.44 14.53 14.36 13.77 13.90 14.68 16.37 19.47 17.53 15.38 14.14 14.52 14.08 13.94 14.01 14.40 14.85 16.08 17.22 17.37 16.71 16.78 17.27 17.79 18.28 19.27 20.19 20.35 22.30 27.83 33.32 35.16 37.63 37.56 36.37 35.22 34.09 33.18 32.21 30.96 29.63 28.92 28.43 27.71 27.27 26.53 25.99 25.63 26.21 26.46 26.50 26.22 25.27 24.55 24.33 24.81 25.98
8.79 9.54 10.64 11.22 11.17 11.08 11.17 11.30 12.07 12.94 13.60 13.78 13.91 13.91 13.74 13.30 13.28 13.99 15.88 19.43 16.62 14.97 14.31 14.40 14.05 13.92 13.83 13.95 14.30 15.94 16.95 15.07 15.99 16.75 17.54 18.51 17.90 17.93 18.62 19.71 21.29 26.14 31.31 33.81 36.91 37.44 36.58 35.40 34.14 32.97 31.54 29.38 28.04 27.73 27.89 27.90 27.03 26.09 25.35 25.44 25.72 26.06 25.96 25.41 24.40 23.88 23.71 23.93 25.89
8.39 9.10 10.07 10.64 11.00 10.86 10.82 10.99 11.88 12.50 12.85 12.98 12.98 12.81 12.68 12.50 12.68 13.41 15.01 17.67 14.02 13.66 14.35 13.91 13.83 13.77 13.72 13.78 13.66 14.50 15.25 14.79 15.94 16.66 17.49 18.73 17.80 17.48 17.98 19.19 20.03 24.09 28.89 32.57 36.11 37.10 36.61 35.75 34.40 32.92 30.84 27.95 26.84 26.92 27.57 28.19 27.40 26.46 25.49 24.55 24.33 24.83 25.49 25.99 25.52 24.82 24.15 23.37 26.12
8.57 9.54 10.60 10.77 10.86 10.82 10.64 10.73 11.48 11.79 11.97 12.10 12.01 11.75 11.40 11.31 11.75 12.75 14.48 17.00 13.03 12.73 13.62 13.03 13.12 13.15 13.46 14.30 14.06 14.16 14.33 14.32 16.21 16.74 16.47 16.11 16.84 18.01 18.79 18.20 19.53 22.90 27.21 31.39 35.29 36.64 36.54 35.94 34.91 33.20 30.94 28.32 27.55 27.29 27.40 27.97 27.34 26.32 24.99 23.35 23.51 23.68 24.39 26.07 24.87 23.68 22.99 22.93 27.08
9.32 10.11 10.60 10.60 10.69 10.69 10.78 10.69 11.04 11.17 11.26 11.35 11.35 11.09 10.73 10.64 11.29 12.93 14.51 14.87 11.66 11.46 12.41 12.63 12.85 13.37 14.66 17.14 15.13 14.57 14.59 14.48 15.40 16.34 16.39 14.97 17.05 20.54 22.12 18.29 19.46 22.47 26.34 30.61 34.53 36.18 36.41 35.87 35.40 33.96 31.76 28.90 27.28 27.13 27.62 28.00 27.31 25.96 24.52 23.64 23.97 23.23 22.78 23.89 23.67 22.84 22.32 22.81 27.33
9.27 9.32 9.23 8.96 9.89 10.33 10.47 10.47 10.60 10.47 10.25 10.20 10.82 11.06 11.33 12.31 13.00 14.06 14.24 12.08 10.55 10.82 11.97 12.90 13.34 14.65 16.78 20.00 15.86 14.39 14.45 15.04 14.28 14.82 15.81 16.69 18.43 22.42 24.18 18.98 18.88 21.16 24.92 29.62 33.70 35.72 36.16 35.58 35.55 34.48 32.31 28.93 26.18 25.80 26.82 28.23 27.49 26.10 25.06 25.07 24.64 23.29 21.90 21.20 21.60 21.68 21.65 21.92 24.60
8.30 8.88 9.98 9.80 9.49 9.54 9.76 9.94 10.07 9.67 9.27 9.32 10.16 11.55 13.22 14.54 12.66 11.84 11.53 11.08 11.66 12.28 13.12 14.22 14.53 15.33 16.87 19.39 15.91 14.16 13.89 14.82 14.67 14.50 15.09 17.23 17.99 20.47 21.46 17.73 17.47 19.31 22.91 27.75 32.62 35.18 35.87 35.26 35.28 34.96 33.37 29.88 25.89 25.22 26.42 27.98 27.54 26.52 25.62 25.90 25.21 24.35 23.25 21.72 20.67 20.42 20.54 20.50 20.97
MSLP
1020.40 1020.34 1020.24 1020.18 1020.12 1020.06 1020.02 1019.96 1019.94 1019.90 1019.84 1019.82 1019.78 1019.78 1019.74 1019.72 1019.72 1019.72 1019.74 1019.74 1019.74 1019.74 1019.74 1019.78 1019.78 1019.74 1019.72 1019.66 1019.60 1019.52 1019.46 1019.40 1019.34 1019.28 1019.22 1019.16 1019.06 1019.00 1018.90 1018.78 1018.68 1018.56 1018.44 1018.34 1018.18 1018.06 1017.96 1017.88 1017.74 1017.72 1017.68 1017.66 1017.66 1017.68 1017.72 1017.72 1017.68 1017.60 1017.50 1017.40 1017.34 1017.24 1017.18 1017.12 1017.10 1016.96 1016.82 1016.68 1016.60
1020.78 1020.72 1020.66 1020.60 1020.50 1020.44 1020.38 1020.30 1020.24 1020.22 1020.16 1020.12 1020.10 1020.06 1020.02 1019.96 1020.00 1020.00 1020.00 1020.00 1020.00 1020.00 1020.00 1020.00 1019.96 1019.94 1019.88 1019.82 1019.74 1019.68 1019.66 1019.62 1019.56 1019.50 1019.44 1019.38 1019.28 1019.22 1019.10 1019.00 1018.90 1018.78 1018.66 1018.52 1018.40 1018.28 1018.18 1018.06 1017.96 1017.90 1017.90 1017.88 1017.88 1017.88 1017.90 1017.94 1017.90 1017.84 1017.74 1017.66 1017.60 1017.50 1017.44 1017.38 1017.38 1017.28 1017.12 1017.00 1016.88
1021.12 1021.06 1021.00 1020.90 1020.84 1020.74 1020.68 1020.62 1020.62 1020.56 1020.52 1020.44 1020.38 1020.34 1020.28 1020.24 1020.24 1020.24 1020.24 1020.28 1020.22 1020.18 1020.18 1020.18 1020.16 1020.12 1020.02 1019.96 1019.90 1019.88 1019.84 1019.78 1019.72 1019.68 1019.62 1019.56 1019.50 1019.38 1019.28 1019.22 1019.06 1018.96 1018.88 1018.74 1018.60 1018.46 1018.38 1018.28 1018.16 1018.16 1018.18 1018.18 1018.12 1018.10 1018.10 1018.12 1018.12 1018.06 1017.96 1017.94 1017.90 1017.82 1017.74 1017.68 1017.68 1017.60 1017.44 1017.30 1017.22
1021.40 1021.34 1021.24 1021.22 1021.12 1021.06 1021.02 1021.00 1020.94 1020.84 1020.78 1020.74 1020.68 1020.60 1020.56 1020.52 1020.50 1020.46 1020.46 1020.46 1020.44 1020.40 1020.40 1020.40 1020.38 1020.30 1020.24 1020.18 1020.12 1020.06 1020.02 1019.96 1019.94 1019.88 1019.82 1019.74 1019.68 1019.60 1019.50 1019.38 1019.28 1019.18 1019.10 1018.96 1018.82 1018.72 1018.60 1018.46 1018.40 1018.40 1018.44 1018.44 1018.40 1018.40 1018.40 1018.40 1018.34 1018.28 1018.24 1018.24 1018.22 1018.16 1018.10 1018.06 1018.00 1017.90 1017.78 1017.68 1017.56
1021.68 1021.62 1021.60 1021.50 1021.44 1021.38 1021.34 1021.28 1021.24 1021.16 1021.10 1021.00 1020.88 1020.84 1020.82 1020.78 1020.78 1020.74 1020.72 1020.66 1020.62 1020.62 1020.62 1020.60 1020.56 1020.50 1020.44 1020.34 1020.28 1020.24 1020.22 1020.16 1020.12 1020.10 1020.02 1019.94 1019.88 1019.82 1019.72 1019.62 1019.52 1019.44 1019.34 1019.22 1019.12 1018.96 1018.84 1018.68 1018.66 1018.68 1018.72 1018.68 1018.72 1018.74 1018.78 1018.68 1018.60 1018.56 1018.52 1018.52 1018.52 1018.50 1018.46 1018.40 1018.38 1018.28 1018.18 1018.06 1017.90
1022.00 1021.94 1021.88 1021.84 1021.74 1021.68 1021.62 1021.60 1021.50 1021.40 1021.34 1021.24 1021.16 1021.12 1021.06 1021.06 1021.02 1021.00 1020.96 1020.96 1020.94 1020.90 1020.84 1020.82 1020.74 1020.68 1020.62 1020.56 1020.46 1020.40 1020.40 1020.40 1020.34 1020.30 1020.24 1020.18 1020.10 1020.02 1019.94 1019.88 1019.78 1019.68 1019.60 1019.50 1019.38 1019.24 1019.10 1019.00 1018.94 1018.94 1019.00 1019.02 1019.06 1019.12 1019.10 1018.96 1018.84 1018.82 1018.82 1018.82 1018.84 1018.88 1018.84 1018.78 1018.72 1018.66 1018.56 1018.44 1018.22
1022.28 1022.22 1022.18 1022.16 1022.06 1021.96 1021.90 1021.84 1021.74 1021.66 1021.56 1021.46 1021.40 1021.38 1021.38 1021.34 1021.28 1021.24 1021.24 1021.22 1021.18 1021.16 1021.06 1021.02 1021.00 1020.90 1020.82 1020.74 1020.68 1020.62 1020.60 1020.60 1020.52 1020.50 1020.44 1020.38 1020.30 1020.22 1020.16 1020.10 1020.02 1019.94 1019.84 1019.74 1019.62 1019.52 1019.44 1019.30 1019.28 1019.28 1019.28 1019.30 1019.38 1019.40 1019.38 1019.28 1019.18 1019.12 1019.10 1019.12 1019.16 1019.18 1019.18 1019.12 1019.10 1019.00 1018.88 1018.72 1018.50
1022.46 1022.46 1022.44 1022.38 1022.30 1022.24 1022.22 1022.10 1022.00 1021.90 1021.78 1021.72 1021.66 1021.62 1021.60 1021.56 1021.52 1021.50 1021.46 1021.40 1021.40 1021.38 1021.30 1021.24 1021.22 1021.12 1021.02 1020.94 1020.84 1020.78 1020.78 1020.74 1020.72 1020.66 1020.62 1020.56 1020.50 1020.44 1020.40 1020.30 1020.22 1020.16 1020.10 1020.00 1019.94 1019.88 1019.74 1019.68 1019.66 1019.66 1019.66 1019.62 1019.68 1019.72 1019.68 1019.60 1019.50 1019.40 1019.38 1019.40 1019.46 1019.50 1019.50 1019.46 1019.40 1019.30 1019.18 1018.96 1018.74
1022.68 1022.68 1022.66 1022.62 1022.56 1022.52 1022.46 1022.38 1022.24 1022.12 1022.02 1021.96 1021.90 1021.88 1021.82 1021.78 1021.82 1021.72 1021.66 1021.66 1021.66 1021.60 1021.52 1021.44 1021.40 1021.30 1021.22 1021.12 1021.06 1021.00 1020.96 1020.90 1020.90 1020.84 1020.82 1020.78 1020.72 1020.68 1020.62 1020.56 1020.50 1020.44 1020.38 1020.30 1020.24 1020.22 1020.12 1020.00 1020.00 1020.00 1019.96 1019.94 1019.94 1019.96 1019.96 1019.84 1019.74 1019.72 1019.68 1019.72 1019.74 1019.78 1019.78 1019.74 1019.68 1019.60 1019.44 1019.24 1019.02
1022.96 1022.94 1022.88 1022.84 1022.78 1022.72 1022.62 1022.52 1022.44 1022.34 1022.24 1022.22 1022.16 1022.10 1022.02 1022.00 1021.96 1021.94 1021.90 1021.88 1021.82 1021.74 1021.68 1021.62 1021.56 1021.50 1021.40 1021.34 1021.28 1021.24 1021.18 1021.12 1021.06 1021.02 1021.02 1021.00 1020.96 1020.94 1020.90 1020.84 1020.82 1020.74 1020.66 1020.60 1020.56 1020.50 1020.40 1020.34 1020.30 1020.30 1020.28 1020.24 1020.22 1020.18 1020.16 1020.10 1020.00 1019.96 1020.00 1020.02 1020.06 1020.06 1020.02 1020.00 1019.94 1019.84 1019.68 1019.52 1019.38
1023.18 1023.16 1023.10 1023.06 1022.96 1022.88 1022.78 1022.68 1022.62 1022.56 1022.50 1022.44 1022.40 1022.34 1022.24 1022.22 1022.18 1022.18 1022.12 1022.02 1021.94 1021.90 1021.84 1021.82 1021.74 1021.66 1021.62 1021.60 1021.56 1021.50 1021.40 1021.30 1021.24 1021.24 1021.24 1021.22 1021.18 1021.18 1021.16 1021.10 1021.06 1021.00 1020.94 1020.88 1020.84 1020.78 1020.72 1020.66 1020.60 1020.52 1020.46 1020.44 1020.40 1020.40 1020.38 1020.30 1020.24 1020.24 1020.30 1020.38 1020.38 1020.34 1020.34 1020.30 1020.22 1020.10 1019.96 1019.84 1019.66
1023.38 1023.30 1023.28 1023.22 1023.12 1023.02 1022.96 1022.90 1022.84 1022.78 1022.72 1022.66 1022.62 1022.52 1022.46 1022.44 1022.40 1022.34 1022.28 1022.18 1022.12 1022.06 1022.02 1021.96 1021.94 1021.88 1021.88 1021.84 1021.78 1021.72 1021.62 1021.56 1021.46 1021.40 1021.40 1021.40 1021.40 1021.38 1021.34 1021.28 1021.24 1021.22 1021.18 1021.16 1021.10 1021.02 1020.96 1020.94 1020.84 1020.74 1020.68 1020.66 1020.66 1020.66 1020.62 1020.56 1020.52 1020.56 1020.62 1020.66 1020.66 1020.66 1020.66 1020.60 1020.50 1020.38 1020.24 1020.10 1019.88
1023.60 1023.52 1023.46 1023.40 1023.30 1023.24 1023.18 1023.16 1023.10 1023.02 1022.96 1022.90 1022.88 1022.82 1022.72 1022.68 1022.60 1022.50 1022.40 1022.34 1022.30 1022.28 1022.22 1022.16 1022.12 1022.12 1022.12 1022.12 1022.06 1021.96 1021.88 1021.82 1021.72 1021.66 1021.62 1021.62 1021.62 1021.60 1021.56 1021.52 1021.46 1021.44 1021.44 1021.40 1021.34 1021.24 1021.18 1021.12 1021.06 1020.96 1020.94 1020.90 1020.90 1020.90 1020.90 1020.84 1020.84 1020.84 1020.90 1020.94 1020.94 1020.94 1020.90 1020.88 1020.74 1020.62 1020.46 1020.28 1020.10
1023.82 1023.78 1023.72 1023.60 1023.50 1023.44 1023.38 1023.34 1023.30 1023.24 1023.18 1023.12 1023.10 1023.02 1022.94 1022.84 1022.74 1022.66 1022.60 1022.56 1022.50 1022.44 1022.40 1022.38 1022.30 1022.30 1022.30 1022.28 1022.24 1022.18 1022.12 1022.02 1021.96 1021.90 1021.84 1021.84 1021.84 1021.82 1021.82 1021.78 1021.74 1021.68 1021.66 1021.60 1021.56 1021.46 1021.38 1021.34 1021.28 1021.22 1021.18 1021.16 1021.16 1021.16 1021.16 1021.16 1021.16 1021.18 1021.18 1021.22 1021.24 1021.22 1021.18 1021.10 1021.00 1020.84 1020.66 1020.46 1020.30
1024.00 1023.94 1023.84 1023.74 1023.68 1023.62 1023.60 1023.52 1023.50 1023.44 1023.40 1023.34 1023.28 1023.18 1023.12 1023.00 1022.90 1022.84 1022.78 1022.74 1022.68 1022.62 1022.60 1022.56 1022.52 1022.50 1022.46 1022.44 1022.44 1022.40 1022.34 1022.28 1022.22 1022.12 1022.06 1022.06 1022.02 1022.02 1022.02 1022.00 1021.96 1021.88 1021.82 1021.78 1021.72 1021.66 1021.60 1021.52 1021.50 1021.46 1021.44 1021.44 1021.44 1021.44 1021.44 1021.44 1021.46 1021.46 1021.50 1021.50 1021.50 1021.46 1021.40 1021.34 1021.22 1021.02 1020.84 1020.72 1020.56
1024.12 1024.02 1023.94 1023.90 1023.84 1023.84 1023.82 1023.78 1023.74 1023.68 1023.66 1023.60 1023.50 1023.38 1023.28 1023.18 1023.10 1023.00 1022.94 1022.90 1022.88 1022.82 1022.78 1022.78 1022.74 1022.72 1022.66 1022.60 1022.60 1022.60 1022.56 1022.50 1022.44 1022.38 1022.30 1022.28 1022.24 1022.24 1022.24 1022.18 1022.16 1022.10 1022.02 1021.96 1021.90 1021.84 1021.82 1021.78 1021.78 1021.74 1021.72 1021.74 1021.72 1021.72 1021.72 1021.74 1021.72 1021.74 1021.78 1021.78 1021.74 1021.68 1021.62 1021.52 1021.40 1021.24 1021.10 1020.96 1020.82
1024.24 1024.18 1024.12 1024.10 1024.06 1024.02 1024.00 1024.00 1023.96 1023.94 1023.90 1023.84 1023.74 1023.62 1023.52 1023.44 1023.34 1023.24 1023.16 1023.12 1023.10 1023.06 1023.06 1023.02 1023.00 1022.94 1022.90 1022.84 1022.78 1022.74 1022.74 1022.72 1022.68 1022.60 1022.52 1022.50 1022.44 1022.40 1022.40 1022.38 1022.34 1022.28 1022.22 1022.16 1022.12 1022.10 1022.10 1022.10 1022.06 1022.02 1022.00 1022.02 1022.00 1021.96 1022.00 1022.00 1022.00 1022.02 1022.02 1022.02 1021.96 1021.94 1021.84 1021.74 1021.62 1021.50 1021.34 1021.18 1021.06
1024.50 1024.46 1024.40 1024.34 1024.32 1024.24 1024.22 1024.18 1024.22 1024.18 1024.12 1024.02 1023.96 1023.88 1023.78 1023.68 1023.62 1023.52 1023.46 1023.40 1023.38 1023.34 1023.30 1023.30 1023.24 1023.22 1023.16 1023.12 1023.02 1022.96 1022.94 1022.96 1022.90 1022.84 1022.74 1022.68 1022.56 1022.52 1022.52 1022.52 1022.50 1022.46 1022.40 1022.38 1022.34 1022.34 1022.34 1022.30 1022.30 1022.30 1022.28 1022.24 1022.24 1022.22 1022.22 1022.24 1022.24 1022.24 1022.24 1022.22 1022.18 1022.12 1022.06 1021.96 1021.84 1021.74 1021.60 1021.46 1021.34
1024.74 1024.72 1024.68 1024.62 1024.56 1024.50 1024.44 1024.38 1024.34 1024.32 1024.24 1024.18 1024.16 1024.10 1024.02 1023.96 1023.88 1023.82 1023.74 1023.72 1023.68 1023.66 1023.62 1023.60 1023.52 1023.50 1023.44 1023.38 1023.30 1023.22 1023.16 1023.16 1023.12 1023.02 1022.94 1022.84 1022.72 1022.66 1022.60 1022.60 1022.60 1022.56 1022.56 1022.56 1022.56 1022.56 1022.52 1022.52 1022.52 1022.50 1022.46 1022.44 1022.44 1022.44 1022.44 1022.46 1022.46 1022.46 1022.44 1022.40 1022.38 1022.30 1022.24 1022.16 1022.06 1021.96 1021.84 1021.72 1021.62
1025.00 1024.96 1024.94 1024.88 1024.78 1024.72 1024.68 1024.60 1024.52 1024.46 1024.44 1024.38 1024.28 1024.22 1024.22 1024.16 1024.10 1024.02 1024.02 1024.02 1024.02 1023.96 1023.94 1023.88 1023.82 1023.78 1023.72 1023.62 1023.56 1023.46 1023.40 1023.34 1023.28 1023.22 1023.12 1023.02 1022.90 1022.82 1022.72 1022.66 1022.66 1022.66 1022.68 1022.68 1022.68 1022.68 1022.68 1022.68 1022.66 1022.66 1022.62 1022.62 1022.66 1022.66 1022.66 1022.68 1022.68 1022.68 1022.66 1022.62 1022.56 1022.50 1022.44 1022.34 1022.24 1022.16 1022.06 1021.96 1021.88
1025.22 1025.18 1025.12 1025.10 1024.96 1024.90 1024.84 1024.78 1024.72 1024.66 1024.60 1024.52 1024.46 1024.40 1024.38 1024.32 1024.32 1024.28 1024.28 1024.28 1024.24 1024.18 1024.12 1024.10 1024.10 1024.06 1024.00 1023.90 1023.82 1023.72 1023.62 1023.52 1023.46 1023.40 1023.30 1023.18 1023.12 1023.00 1022.88 1022.74 1022.74 1022.74 1022.74 1022.78 1022.78 1022.82 1022.84 1022.84 1022.84 1022.84 1022.84 1022.88 1022.88 1022.90 1022.90 1022.90 1022.90 1022.90 1022.88 1022.84 1022.78 1022.72 1022.66 1022.56 1022.46 1022.38 1022.28 1022.18 1022.10
1025.44 1025.34 1025.32 1025.22 1025.16 1025.06 1025.00 1024.94 1024.88 1024.82 1024.74 1024.72 1024.66 1024.62 1024.60 1024.56 1024.56 1024.52 1024.50 1024.46 1024.40 1024.34 1024.32 1024.32 1024.34 1024.32 1024.24 1024.16 1024.06 1023.96 1023.84 1023.74 1023.68 1023.60 1023.50 1023.38 1023.28 1023.18 1023.02 1022.88 1022.82 1022.78 1022.82 1022.88 1022.90 1022.96 1023.00 1023.06 1023.10 1023.10 1023.12 1023.12 1023.16 1023.16 1023.16 1023.12 1023.12 1023.12 1023.06 1023.02 1022.96 1022.90 1022.84 1022.74 1022.68 1022.60 1022.52 1022.40 1022.28
1025.60 1025.50 1025.44 1025.34 1025.28 1025.18 1025.10 1025.06 1025.00 1024.94 1024.90 1024.88 1024.84 1024.84 1024.82 1024.78 1024.74 1024.72 1024.68 1024.62 1024.56 1024.56 1024.56 1024.52 1024.52 1024.50 1024.44 1024.32 1024.22 1024.12 1024.02 1023.90 1023.84 1023.74 1023.62 1023.52 1023.44 1023.34 1023.22 1023.06 1022.94 1022.88 1022.84 1022.94 1023.00 1023.10 1023.22 1023.28 1023.38 1023.40 1023.40 1023.40 1023.44 1023.46 1023.44 1023.40 1023.38 1023.34 1023.24 1023.18 1023.16 1023.10 1023.00 1022.90 1022.84 1022.74 1022.66 1022.56 1022.44
1025.74 1025.66 1025.56 1025.46 1025.40 1025.34 1025.24 1025.18 1025.16 1025.12 1025.10 1025.10 1025.06 1025.00 1024.96 1024.94 1024.90 1024.84 1024.78 1024.74 1024.74 1024.74 1024.72 1024.72 1024.66 1024.60 1024.52 1024.40 1024.34 1024.24 1024.18 1024.10 1024.02 1023.94 1023.82 1023.68 1023.60 1023.52 1023.44 1023.30 1023.12 1023.02 1023.00 1023.00 1023.02 1023.18 1023.38 1023.52 1023.62 1023.66 1023.66 1023.66 1023.66 1023.66 1023.66 1023.62 1023.56 1023.50 1023.44 1023.34 1023.24 1023.18 1023.10 1023.00 1022.94 1022.82 1022.72 1022.62 1022.52
1025.90 1025.82 1025.72 1025.62 1025.56 1025.50 1025.44 1025.38 1025.34 1025.34 1025.34 1025.32 1025.28 1025.22 1025.16 1025.12 1025.06 1025.02 1024.96 1024.94 1024.94 1024.90 1024.84 1024.82 1024.74 1024.66 1024.56 1024.50 1024.44 1024.38 1024.32 1024.28 1024.28 1024.18 1024.06 1023.94 1023.84 1023.78 1023.68 1023.60 1023.38 1023.24 1023.18 1023.18 1023.16 1023.18 1023.30 1023.50 1023.68 1023.82 1023.84 1023.84 1023.82 1023.78 1023.74 1023.68 1023.62 1023.56 1023.50 1023.38 1023.28 1023.22 1023.12 1023.00 1022.90 1022.84 1022.74 1022.66 1022.56
1026.06 1025.96 1025.90 1025.88 1025.78 1025.72 1025.68 1025.66 1025.66 1025.62 1025.56 1025.52 1025.46 1025.40 1025.38 1025.34 1025.28 1025.18 1025.16 1025.16 1025.12 1025.10 1025.02 1024.96 1024.90 1024.82 1024.72 1024.68 1024.62 1024.60 1024.56 1024.52 1024.56 1024.46 1024.34 1024.22 1024.12 1024.00 1023.94 1023.84 1023.62 1023.40 1023.30 1023.28 1023.30 1023.30 1023.30 1023.40 1023.56 1023.74 1023.90 1023.94 1023.90 1023.84 1023.82 1023.74 1023.68 1023.62 1023.52 1023.44 1023.34 1023.28 1023.18 1023.12 1023.00 1022.90 1022.82 1022.72 1022.66
1026.22 1026.16 1026.12 1026.06 1026.00 1025.96 1025.96 1025.94 1025.88 1025.82 1025.74 1025.68 1025.66 1025.62 1025.56 1025.50 1025.44 1025.38 1025.38 1025.38 1025.34 1025.28 1025.18 1025.16 1025.12 1025.06 1024.96 1024.96 1024.94 1024.94 1024.94 1024.90 1024.82 1024.72 1024.62 1024.50 1024.38 1024.24 1024.16 1024.02 1023.90 1023.62 1023.38 1023.30 1023.38 1023.44 1023.44 1023.40 1023.46 1023.66 1023.84 1023.96 1023.94 1023.90 1023.88 1023.82 1023.74 1023.68 1023.62 1023.52 1023.46 1023.40 1023.38 1023.30 1023.22 1023.10 1023.00 1022.90 1022.78
1026.44 1026.38 1026.32 1026.22 1026.18 1026.18 1026.16 1026.06 1026.02 1026.00 1025.96 1025.90 1025.88 1025.82 1025.74 1025.62 1025.60 1025.60 1025.60 1025.56 1025.52 1025.46 1025.44 1025.40 1025.40 1025.32 1025.22 1025.22 1025.24 1025.24 1025.24 1025.16 1025.06 1024.96 1024.84 1024.68 1024.60 1024.46 1024.32 1024.16 1024.06 1023.78 1023.46 1023.30 1023.40 1023.50 1023.52 1023.52 1023.52 1023.60 1023.72 1023.88 1023.94 1023.96 1023.94 1023.90 1023.88 1023.82 1023.74 1023.68 1023.66 1023.60 1023.56 1023.50 1023.40 1023.30 1023.22 1023.10 1022.96
1026.62 1026.56 1026.50 1026.44 1026.40 1026.38 1026.32 1026.24 1026.22 1026.22 1026.16 1026.12 1026.02 1025.94 1025.84 1025.82 1025.78 1025.82 1025.78 1025.78 1025.72 1025.72 1025.74 1025.72 1025.62 1025.52 1025.50 1025.52 1025.52 1025.46 1025.40 1025.38 1025.28 1025.16 1025.02 1024.88 1024.74 1024.62 1024.46 1024.34 1024.22 1023.90 1023.52 1023.34 1023.46 1023.56 1023.60 1023.66 1023.66 1023.68 1023.72 1023.84 1023.96 1024.02 1024.00 1024.00 1024.00 1023.96 1023.90 1023.84 1023.82 1023.74 1023.68 1023.66 1023.56 1023.46 1023.38 1023.28 1023.12
1026.82 1026.72 1026.66 1026.60 1026.56 1026.52 1026.46 1026.46 1026.40 1026.38 1026.32 1026.22 1026.12 1026.06 1025.96 1025.96 1026.00 1026.00 1026.00 1026.00 1026.02 1026.02 1026.00 1025.96 1025.84 1025.78 1025.78 1025.78 1025.72 1025.62 1025.56 1025.52 1025.44 1025.32 1025.22 1025.16 1025.00 1024.82 1024.62 1024.50 1024.34 1024.02 1023.66 1023.40 1023.50 1023.60 1023.66 1023.72 1023.74 1023.78 1023.82 1023.90 1024.02 1024.06 1024.10 1024.10 1024.10 1024.06 1024.02 1023.96 1023.94 1023.88 1023.82 1023.78 1023.68 1023.60 1023.52 1023.40 1023.24
1026.96 1026.88 1026.82 1026.72 1026.68 1026.68 1026.62 1026.60 1026.52 1026.50 1026.44 1026.34 1026.24 1026.18 1026.16 1026.18 1026.24 1026.24 1026.24 1026.24 1026.28 1026.22 1026.12 1026.10 1026.02 1026.00 1026.00 1025.94 1025.88 1025.82 1025.74 1025.68 1025.60 1025.50 1025.40 1025.34 1025.22 1025.06 1024.88 1024.68 1024.50 1024.18 1023.82 1023.52 1023.52 1023.66 1023.72 1023.78 1023.82 1023.88 1023.90 1023.96 1024.06 1024.10 1024.12 1024.12 1024.12 1024.16 1024.16 1024.12 1024.06 1023.96 1023.90 1023.84 1023.78 1023.68 1023.60 1023.52 1023.40
1027.10 1027.00 1026.94 1026.88 1026.84 1026.84 1026.78 1026.72 1026.68 1026.62 1026.52 1026.46 1026.40 1026.40 1026.44 1026.44 1026.46 1026.46 1026.46 1026.44 1026.40 1026.38 1026.32 1026.22 1026.18 1026.16 1026.16 1026.06 1026.02 1025.96 1025.88 1025.82 1025.74 1025.66 1025.56 1025.50 1025.38 1025.24 1025.06 1024.84 1024.66 1024.34 1023.96 1023.66 1023.56 1023.62 1023.74 1023.84 1023.88 1023.94 1023.96 1024.02 1024.12 1024.18 1024.18 1024.12 1024.16 1024.22 1024.24 1024.18 1024.12 1024.06 1024.00 1023.94 1023.88 1023.82 1023.72 1023.62 1023.60
1027.22 1027.16 1027.10 1027.06 1027.06 1027.00 1026.94 1026.84 1026.82 1026.74 1026.68 1026.62 1026.62 1026.62 1026.66 1026.68 1026.66 1026.62 1026.62 1026.56 1026.52 1026.52 1026.50 1026.44 1026.44 1026.40 1026.38 1026.34 1026.24 1026.12 1026.02 1025.96 1025.90 1025.78 1025.66 1025.56 1025.46 1025.34 1025.16 1025.00 1024.84 1024.52 1024.12 1023.82 1023.66 1023.66 1023.78 1023.88 1023.94 1024.00 1024.06 1024.10 1024.18 1024.28 1024.32 1024.24 1024.22 1024.24 1024.28 1024.28 1024.22 1024.16 1024.10 1024.06 1024.02 1023.94 1023.84 1023.74 1023.66
1027.34 1027.28 1027.24 1027.24 1027.22 1027.16 1027.10 1027.02 1026.94 1026.88 1026.82 1026.84 1026.84 1026.84 1026.88 1026.84 1026.82 1026.78 1026.74 1026.66 1026.66 1026.66 1026.62 1026.62 1026.60 1026.56 1026.52 1026.46 1026.40 1026.32 1026.18 1026.02 1025.96 1025.90 1025.82 1025.68 1025.56 1025.40 1025.28 1025.16 1025.02 1024.68 1024.32 1024.02 1023.78 1023.72 1023.82 1023.90 1024.00 1024.10 1024.18 1024.22 1024.28 1024.34 1024.32 1024.28 1024.24 1024.28 1024.32 1024.32 1024.28 1024.22 1024.16 1024.10 1024.02 1024.00 1023.90 1023.74 1023.62
1027.50 1027.44 1027.40 1027.38 1027.32 1027.28 1027.22 1027.18 1027.10 1027.02 1027.00 1027.02 1027.02 1027.00 1026.96 1026.96 1026.96 1026.94 1026.88 1026.74 1026.74 1026.74 1026.74 1026.74 1026.74 1026.68 1026.62 1026.56 1026.50 1026.40 1026.32 1026.18 1026.10 1026.00 1025.90 1025.82 1025.66 1025.52 1025.40 1025.28 1025.12 1024.82 1024.50 1024.24 1023.96 1023.84 1023.88 1023.96 1024.06 1024.18 1024.28 1024.38 1024.38 1024.34 1024.34 1024.32 1024.32 1024.34 1024.34 1024.32 1024.24 1024.22 1024.16 1024.12 1024.06 1024.02 1023.90 1023.74 1023.56
1027.66 1027.60 1027.52 1027.50 1027.46 1027.40 1027.34 1027.32 1027.22 1027.18 1027.18 1027.22 1027.18 1027.18 1027.16 1027.12 1027.10 1027.06 1026.96 1026.82 1026.84 1026.84 1026.82 1026.82 1026.78 1026.74 1026.72 1026.66 1026.60 1026.46 1026.38 1026.34 1026.22 1026.10 1025.96 1025.88 1025.78 1025.68 1025.56 1025.40 1025.22 1025.00 1024.72 1024.50 1024.16 1023.96 1023.96 1024.02 1024.12 1024.24 1024.40 1024.50 1024.46 1024.40 1024.38 1024.34 1024.38 1024.38 1024.40 1024.38 1024.34 1024.28 1024.18 1024.12 1024.06 1024.00 1023.90 1023.74 1023.56
1027.74 1027.68 1027.66 1027.60 1027.56 1027.52 1027.46 1027.44 1027.34 1027.34 1027.34 1027.34 1027.34 1027.32 1027.28 1027.22 1027.18 1027.12 1027.02 1026.90 1026.96 1026.96 1026.94 1026.90 1026.84 1026.82 1026.82 1026.74 1026.72 1026.62 1026.52 1026.46 1026.34 1026.22 1026.10 1025.96 1025.90 1025.82 1025.72 1025.56 1025.44 1025.24 1025.02 1024.72 1024.34 1024.06 1024.00 1024.10 1024.16 1024.28 1024.44 1024.56 1024.52 1024.46 1024.38 1024.32 1024.34 1024.38 1024.40 1024.40 1024.40 1024.32 1024.22 1024.10 1024.00 1023.94 1023.88 1023.74 1023.52
1027.78 1027.74 1027.68 1027.66 1027.66 1027.62 1027.60 1027.52 1027.50 1027.50 1027.50 1027.50 1027.44 1027.38 1027.34 1027.28 1027.24 1027.18 1027.10 1027.00 1027.02 1027.06 1027.06 1027.06 1027.02 1027.00 1026.90 1026.82 1026.74 1026.68 1026.56 1026.46 1026.38 1026.28 1026.22 1026.16 1026.02 1025.90 1025.82 1025.72 1025.62 1025.46 1025.24 1024.90 1024.46 1024.16 1024.02 1024.10 1024.12 1024.24 1024.38 1024.50 1024.52 1024.46 1024.38 1024.32 1024.32 1024.34 1024.40 1024.40 1024.40 1024.34 1024.24 1024.10 1024.00 1023.96 1023.90 1023.78 1023.50
1027.82 1027.78 1027.74 1027.72 1027.72 1027.68 1027.66 1027.62 1027.62 1027.62 1027.60 1027.52 1027.50 1027.44 1027.38 1027.34 1027.32 1027.24 1027.16 1027.12 1027.16 1027.16 1027.16 1027.16 1027.16 1027.06 1026.94 1026.74 1026.72 1026.66 1026.52 1026.44 1026.38 1026.32 1026.28 1026.24 1026.12 1025.94 1025.84 1025.90 1025.82 1025.66 1025.38 1025.02 1024.60 1024.28 1024.10 1024.10 1024.10 1024.18 1024.32 1024.44 1024.50 1024.44 1024.38 1024.28 1024.28 1024.32 1024.34 1024.34 1024.34 1024.32 1024.24 1024.12 1024.06 1024.00 1023.94 1023.82 1023.52
1027.84 1027.82 1027.82 1027.78 1027.74 1027.74 1027.72 1027.72 1027.68 1027.68 1027.62 1027.60 1027.56 1027.50 1027.44 1027.38 1027.32 1027.24 1027.22 1027.24 1027.24 1027.22 1027.18 1027.16 1027.12 1027.06 1026.90 1026.72 1026.68 1026.62 1026.52 1026.44 1026.38 1026.34 1026.32 1026.28 1026.18 1026.02 1025.96 1026.06 1025.96 1025.78 1025.46 1025.12 1024.68 1024.34 1024.18 1024.12 1024.10 1024.16 1024.28 1024.40 1024.46 1024.44 1024.34 1024.24 1024.22 1024.24 1024.28 1024.24 1024.24 1024.24 1024.24 1024.18 1024.10 1024.02 1023.94 1023.84 1023.68
1027.90 1027.88 1027.82 1027.78 1027.78 1027.74 1027.74 1027.74 1027.72 1027.68 1027.62 1027.62 1027.60 1027.52 1027.44 1027.38 1027.38 1027.34 1027.32 1027.24 1027.22 1027.18 1027.16 1027.12 1027.10 1027.02 1026.88 1026.72 1026.68 1026.66 1026.62 1026.52 1026.50 1026.46 1026.40 1026.38 1026.32 1026.22 1026.16 1026.16 1026.02 1025.82 1025.50 1025.18 1024.74 1024.44 1024.24 1024.22 1024.16 1024.12 1024.18 1024.34 1024.40 1024.40 1024.34 1024.24 1024.16 1024.18 1024.22 1024.22 1024.22 1024.22 1024.18 1024.16 1024.12 1024.06 1023.96 1023.90 1023.82
Wind_Speed
11 9 8 8 7 6 6 6 6 6 6 5 6 5 5 5 6 5 5 5 5 5 5 5 5 6 6 8 9 9 9 9 9 10 10 10 10 10 10 10 9 9 9 9 8 7 7 7 6 6 5 6 6 7 7 7 7 8 8 8 7 7 8 9 9 10 10 10 7
11 11 10 9 8 7 6 6 6 6 6 5 5 5 5 5 5 5 5 6 5 5 5 5 6 6 7 8 8 9 9 9 10 10 10 10 10 10 10 10 10 10 10 9 8 7 6 7 6 6 6 6 6 7 7 7 7 8 9 10 7 7 7 8 9 9 9 9 8
11 10 10 9 8 7 7 6 6 7 7 6 5 5 5 5 5 5 5 6 6 6 5 5 6 7 8 8 8 8 8 9 9 9 9 9 10 10 10 10 10 11 10 9 9 7 7 7 7 7 7 6 7 7 7 8 8 8 8 9 7 6 6 7 8 8 8 7 8
11 10 10 10 10 9 8 7 7 7 7 6 6 6 6 6 5 5 6 6 7 7 6 6 6 6 7 7 8 8 9 10 10 10 9 9 10 11 11 11 11 11 10 10 10 9 8 8 7 7 7 8 8 8 7 7 8 8 7 8 7 7 7 6 7 7 7 7 7
11 10 10 10 10 10 8 7 8 7 6 6 6 6 6 6 6 6 6 6 7 7 7 7 6 6 6 7 8 9 9 10 10 10 9 9 10 10 11 11 11 11 10 10 10 10 9 8 7 7 7 8 8 8 8 8 8 7 7 6 7 7 7 7 7 7 7 7 6
10 10 10 10 10 9 8 7 8 7 7 6 7 7 7 6 6 6 7 6 7 7 8 8 8 7 7 8 8 9 9 9 9 9 9 10 10 10 11 11 11 11 10 11 11 10 10 8 7 7 7 7 8 9 10 9 8 7 7 7 7 7 7 7 7 7 7 8 8
10 10 10 10 10 9 8 8 7 7 7 7 8 9 8 7 7 8 8 7 7 7 7 8 8 8 8 8 8 8 9 9 9 9 10 10 10 11 11 11 11 11 11 11 11 10 9 8 7 7 7 7 7 9 11 10 9 8 8 8 7 7 7 8 7 7 8 10 11
9 10 9 9 9 9 9 9 8 7 7 7 8 9 9 9 9 8 8 7 7 6 6 7 8 8 9 8 8 8 9 9 9 10 10 10 11 11 11 11 11 11 11 11 11 10 10 8 7 7 7 7 7 8 10 12 11 10 10 9 8 8 7 7 7 7 9 11 12
8 9 9 9 8 8 8 8 8 8 8 8 9 9 9 9 9 8 8 7 7 7 6 7 8 9 10 10 9 9 8 9 9 9 10 10 11 11 11 11 11 11 11 10 11 11 10 8 8 7 7 7 8 8 10 12 12 12 10 9 9 9 8 8 8 9 9 11 12
8 8 8 8 8 8 7 8 8 8 9 9 9 9 9 10 8 7 7 6 6 7 7 7 8 9 9 10 10 9 8 8 8 9 10 10 11 11 11 10 11 11 10 10 10 10 10 8 8 8 8 8 9 10 11 12 12 12 11 9 9 10 10 10 10 10 10 10 12
8 7 7 7 7 7 7 8 8 8 8 8 9 9 9 9 8 7 6 6 7 8 8 8 9 9 9 9 9 9 9 8 8 9 9 10 10 10 10 10 11 11 11 10 9 9 8 8 9 10 10 9 10 10 11 12 13 13 12 10 10 11 11 11 10 9 9 10 11
7 7 7 7 7 7 8 8 7 7 8 8 8 8 8 8 8 7 7 7 8 8 8 8 9 9 9 8 8 9 8 8 9 9 9 10 10 10 10 11 11 11 11 10 9 8 8 9 10 11 12 11 9 9 11 12 13 13 12 12 11 11 11 11 10 9 8 9 11
7 7 7 7 7 7 7 7 6 7 7 8 7 7 7 7 7 7 7 8 8 7 7 7 8 8 8 8 8 8 8 8 9 9 9 9 10 10 10 10 11 11 10 10 9 9 9 10 11 12 12 12 10 10 11 12 12 12 12 12 11 11 11 11 10 10 9 10 11
7 7 7 7 7 7 7 7 6 6 7 7 7 6 6 6 7 7 7 7 7 7 6 7 7 7 7 8 8 8 9 9 9 9 9 9 9 10 10 10 10 10 9 9 9 10 10 10 11 12 12 12 12 11 11 11 11 11 11 11 11 11 10 10 10 10 10 11 11
7 7 7 7 7 7 7 7 6 6 7 7 7 6 6 5 6 7 7 7 7 7 7 7 7 7 7 8 8 9 9 9 9 9 9 9 9 9 9 9 10 9 9 9 10 10 11 11 11 11 12 12 12 12 11 11 11 11 11 11 11 10 10 10 10 10 10 11 11
7 7 7 8 8 7 7 6 6 6 6 7 7 6 6 6 6 7 8 8 7 7 7 8 7 7 7 8 9 9 9 9 9 9 9 8 8 8 9 9 9 9 10 10 10 10 10 11 11 11 11 11 11 11 11 11 11 11 10 10 10 10 10 10 10 10 11 11 11
8 8 8 8 8 8 8 7 6 6 6 7 7 7 6 6 6 7 8 9 8 8 9 9 8 8 8 8 8 8 8 8 8 8 8 8 7 8 8 8 9 9 9 10 10 10 10 10 10 10 10 10 10 10 10 10 10 10 10 10 10 10 10 10 10 10 10 11 11
8 8 8 8 8 8 8 7 7 6 6 6 7 7 7 7 7 7 8 9 9 9 9 9 9 8 8 8 8 8 8 8 8 8 8 8 7 7 7 7 8 8 9 9 10 10 10 10 10 9 9 10 9 9 9 9 9 9 9 9 10 10 10 10 10 10 10 10 11
8 8 8 8 8 8 7 7 7 7 6 6 6 6 7 7 7 7 8 9 9 9 9 9 9 9 9 9 8 8 8 8 8 9 8 8 8 7 7 7 7 7 8 9 9 9 9 9 9 9 10 10 9 9 9 9 9 9 9 9 9 10 10 10 10 10 9 10 10
7 7 7 7 7 7 7 7 7 7 6 6 7 7 7 8 8 8 8 8 8 8 8 9 9 9 9 9 9 9 8 7 8 8 8 8 8 8 7 7 7 7 8 9 9 10 10 9 10 10 10 10 10 10 9 9 9 9 9 8 9 9 9 9 9 9 9 9 9
6 6 6 6 6 6 6 6 6 6 7 7 7 8 8 8 8 8 7 7 7 8 8 9 9 8 8 8 9 8 8 7 8 8 8 8 8 8 7 6 6 7 7 8 9 10 10 10 10 10 10 10 10 10 9 8 8 8 8 7 8 8 9 9 9 9 9 9 9
5 5 5 5 5 5 6 6 6 6 7 7 7 7 7 7 7 7 7 7 7 8 8 8 8 8 8 8 8 8 7 7 8 8 8 8 8 8 7 6 6 7 7 8 9 9 10 10 10 9 9 9 9 9 9 8 8 8 8 8 8 8 8 8 8 8 8 9 8
5 5 5 5 5 6 6 6 6 7 7 7 7 7 7 7 6 6 6 7 7 7 7 7 7 7 7 7 8 8 8 8 8 9 8 8 8 8 8 7 7 7 7 7 8 8 8 8 8 8 8 7 7 7 7 8 7 7 7 7 7 7 7 7 7 8 8 8 8
5 5 5 5 5 6 6 6 7 7 7 7 7 7 6 6 6 6 7 8 8 7 7 6 6 6 6 7 8 9 9 10 10 10 10 10 10 9 9 7 6 7 7 7 8 9 8 7 6 6 6 6 6 5 6 6 6 6 6 7 7 7 7 7 7 7 8 8 7
5 5 5 5 6 6 6 7 7 7 7 6 6 6 6 6 6 7 7 8 8 7 7 6 6 6 7 8 8 9 9 9 9 10 10 10 10 10 9 7 6 5 6 9 12 13 12 10 7 5 4 4 4 4 5 5 5 6 6 6 7 7 7 8 8 8 8 8 8
5 5 6 5 6 6 7 7 6 6 6 5 6 6 6 5 6 6 7 7 7 7 7 7 7 8 8 8 9 9 9 9 8 9 9 10 10 10 9 7 6 4 5 10 13 14 14 13 11 9 6 4 4 4 4 4 5 6 6 7 7 7 8 9 9 9 9 9 9
5 5 5 5 6 6 6 6 5 5 5 5 6 6 5 5 6 7 7 7 6 6 6 7 7 7 8 8 9 9 9 8 8 8 8 9 9 9 9 8 7 5 5 12 14 14 14 14 13 11 9 5 4 4 4 4 5 6 6 7 7 7 8 8 8 9 9 9 9
5 5 5 5 6 6 6 5 6 6 6 5 5 5 5 6 7 7 6 6 6 6 6 6 5 5 6 7 8 8 8 7 7 7 7 8 8 8 8 8 7 7 7 13 14 14 14 14 14 13 11 8 5 4 4 4 5 5 5 6 6 7 7 7 7 7 8 9 9
4 4 5 6 5 5 6 6 6 6 5 4 4 5 6 7 7 7 6 6 6 6 5 4 4 5 5 6 6 6 7 7 6 6 7 8 8 8 8 9 8 8 9 14 14 14 14 14 14 13 13 11 6 4 3 3 4 4 4 5 5 6 6 6 6 6 7 7 8
4 4 5 5 6 5 5 5 5 4 4 4 5 5 7 7 7 7 6 6 6 5 4 3 4 5 5 5 6 6 6 6 6 6 7 8 8 8 9 9 9 9 10 14 14 14 14 14 13 13 13 12 8 5 3 3 3 3 4 4 5 5 6 6 6 7 7 7 8
4 4 5 5 6 5 5 4 4 4 4 5 6 6 7 7 6 6 5 4 4 3 3 3 5 5 5 5 5 5 5 5 6 6 6 7 7 7 8 9 9 10 11 14 13 13 13 14 13 13 13 12 8 5 3 3 3 3 3 3 5 5 6 6 6 7 8 8 8
4 4 5 6 5 5 4 4 4 4 5 6 6 7 6 5 4 3 3 3 2 3 4 5 5 5 5 5 5 5 5 6 6 6 6 6 6 6 6 8 8 10 12 15 13 13 13 13 14 13 13 13 9 5 4 4 3 3 3 3 4 5 5 5 6 7 8 8 7
4 4 5 5 5 4 4 4 4 4 5 6 6 6 5 4 3 3 2 2 2 3 4 4 5 4 4 4 4 5 5 6 6 6 6 6 6 6 7 7 7 10 14 16 13 12 13 13 13 13 13 13 8 5 4 4 3 3 3 3 4 4 5 5 5 6 6 7 6
3 4 4 4 4 4 4 4 4 4 4 5 5 4 4 3 3 3 3 2 2 2 2 3 3 2 2 2 3 3 4 5 6 6 6 6 6 7 7 6 6 10 15 17 13 12 12 12 13 13 13 12 7 5 4 3 3 3 3 3 4 4 5 5 5 5 6 6 5
3 3 3 3 3 3 3 3 4 4 5 5 5 4 3 3 3 2 2 2 2 2 2 2 2 2 2 2 2 3 4 5 5 6 6 6 6 7 7 7 7 11 16 18 14 12 12 12 13 13 12 9 6 4 3 3 3 4 4 5 5 5 6 5 5 5 5 6 6
2 2 2 3 3 3 3 3 4 4 5 5 4 4 3 3 2 2 2 2 2 2 2 2 2 2 3 3 3 3 3 4 5 5 6 6 6 7 7 7 8 12 16 18 15 12 12 12 13 12 11 7 4 3 3 2 3 4 4 5 5 5 5 4 4 4 5 5 6
2 1 1 2 2 3 3 3 4 4 4 4 3 2 2 2 2 2 2 2 2 3 2 2 3 3 3 2 2 2 2 2 4 5 6 7 6 6 7 8 8 11 14 18 15 12 12 12 12 11 9 6 4 3 3 2 3 4 4 4 4 4 4 4 4 4 5 6 7
1 1 1 2 2 2 2 3 3 3 3 2 2 1 1 1 1 2 2 2 2 2 2 2 2 2 2 1 1 2 2 2 4 5 6 6 6 6 7 8 8 9 12 16 15 13 12 12 11 11 9 5 4 3 3 2 3 4 3 3 3 3 4 4 4 4 5 7 10
1 1 0 1 1 2 2 3 3 2 2 1 1 1 2 1 1 2 2 1 1 2 2 2 2 2 2 2 2 3 4 4 5 5 5 5 6 7 8 7 7 8 11 15 15 13 12 12 11 11 10 6 4 3 3 2 3 3 3 3 3 3 3 4 4 4 5 7 12
1 1 0 1 1 2 2 2 1 1 0 1 1 1 1 1 1 1 1 1 0 1 1 1 1 1 2 3 4 5 6 6 6 6 6 5 6 8 9 6 7 8 11 14 15 13 13 13 12 11 9 6 4 3 3 3 3 4 4 4 4 3 3 3 3 4 4 5 9
1 1 0 1 1 1 1 1 1 1 1 1 1 1 1 1 1 1 1 1 1 1 1 1 1 2 3 4 5 6 6 6 6 6 5 6 6 7 7 5 6 7 9 12 14 14 14 13 13 11 9 6 4 3 4 4 4 4 5 5 5 4 4 4 3 3 4 5 5
Wind_Direction
26 26 27 29 31 32 34 37 39 40 40 40 43 44 45 48 49 47 44 41 42 41 39 36 30 26 24 26 29 30 29 28 29 30 30 28 25 23 21 20 19 18 17 17 17 20 24 28 34 37 37 34 34 34 32 26 21 21 23 23 22 21 21 22 17 13 11 11 7
29 29 31 32 32 33 34 35 36 36 36 36 39 41 43 47 48 47 45 42 41 40 37 34 28 25 25 26 30 31 32 31 30 30 29 28 27 25 24 24 22 21 20 19 19 21 25 29 36 38 38 33 32 33 32 26 23 24 25 25 22 21 21 24 18 13 11 11 8
29 29 30 30 30 31 33 35 34 34 34 36 37 39 43 46 48 48 46 43 41 40 38 34 28 26 26 27 30 32 34 33 32 30 29 29 28 28 27 26 25 24 23 21 21 22 26 31 38 41 39 33 31 30 30 26 24 26 27 26 22 20 21 23 18 14 12 11 9
30 30 31 31 32 33 35 35 35 35 36 37 40 42 44 46 47 47 46 44 43 41 38 33 30 27 27 28 32 35 36 35 34 33 31 30 29 29 30 29 28 26 24 23 23 24 28 35 41 42 39 35 32 29 26 22 24 28 29 27 24 22 21 22 19 17 14 11 9
31 30 30 30 31 32 34 36 37 38 38 39 42 44 45 45 44 44 43 43 42 40 38 35 33 30 28 30 35 38 39 37 36 34 32 30 30 30 30 31 30 29 27 25 25 26 29 35 42 43 40 37 34 28 21 17 25 30 32 31 28 25 22 20 19 18 17 13 10
31 31 31 31 31 32 34 35 39 41 43 44 46 47 46 46 45 45 44 44 43 41 39 38 36 33 31 32 36 39 40 39 36 35 34 33 32 31 31 32 32 31 30 28 28 28 31 35 41 43 41 40 37 30 23 19 25 31 34 35 31 28 24 21 20 20 19 17 16
33 32 32 31 31 31 33 34 37 41 44 47 48 49 48 47 47 47 47 46 43 41 39 39 35 34 33 33 36 39 41 41 40 38 37 36 34 33 32 33 33 32 32 31 30 30 32 37 42 42 41 41 38 31 26 25 27 31 35 36 33 29 26 22 20 20 20 20 21
34 33 32 31 31 32 33 33 37 40 43 45 46 47 47 47 46 46 47 46 43 41 40 40 37 36 36 36 37 38 40 42 41 40 39 39 37 35 34 33 34 33 33 33 33 33 35 39 42 42 41 41 39 34 30 29 31 33 35 35 33 30 26 23 20 20 21 22 24
33 31 30 30 30 31 32 34 37 40 42 43 43 44 45 45 43 43 45 46 44 42 41 41 39 38 37 37 36 36 37 40 41 42 41 41 40 38 36 35 35 34 34 34 35 36 37 41 43 43 43 44 41 37 34 33 35 35 35 35 31 28 26 25 22 21 21 23 25
34 32 30 31 29 30 31 33 35 38 40 41 40 41 43 44 42 41 43 45 44 43 41 40 39 38 37 36 35 34 34 36 41 43 43 43 42 41 40 39 38 37 36 35 36 37 39 43 44 44 44 45 43 40 37 36 38 38 37 34 29 27 25 24 22 22 22 24 26
33 32 31 30 29 30 32 34 35 36 37 38 37 38 39 40 38 37 38 41 44 43 41 39 39 38 37 36 33 32 31 32 37 42 45 45 44 44 44 43 42 41 39 37 37 38 40 43 45 45 45 44 43 41 39 38 40 39 38 34 30 27 25 23 22 22 22 23 26
29 29 29 29 29 31 34 36 35 35 35 35 34 34 36 36 34 33 35 38 41 41 39 37 38 38 37 35 33 31 31 31 35 41 45 46 46 45 45 45 44 43 42 41 40 41 42 43 44 45 45 43 42 40 39 38 40 40 38 34 31 28 25 22 21 21 22 23 26
27 28 29 30 31 34 36 37 35 33 32 32 31 31 31 32 31 32 34 37 38 37 35 34 37 38 38 36 33 31 30 30 33 38 44 47 47 47 46 46 46 45 45 43 42 43 44 44 44 45 45 43 42 41 39 39 40 39 37 34 32 28 25 21 20 20 22 25 27
30 31 32 33 35 37 38 37 34 31 29 29 28 27 27 28 29 32 34 35 35 35 34 33 35 36 37 37 35 33 32 30 32 36 42 47 49 49 48 47 46 46 46 44 44 44 44 44 43 44 44 44 43 41 40 40 40 39 37 34 31 28 25 21 19 20 22 25 28
33 33 35 37 37 38 39 37 35 32 30 29 27 26 26 27 29 32 35 35 35 35 36 35 34 34 34 36 36 35 32 31 31 34 38 45 50 51 50 49 47 47 47 45 44 43 43 43 43 43 43 43 42 41 39 39 39 38 36 34 31 28 25 23 20 20 22 25 26
34 34 35 38 39 40 40 38 38 35 32 30 28 28 29 29 30 34 37 37 37 38 39 38 35 33 32 33 36 35 33 31 31 31 34 39 47 51 52 50 49 48 48 46 45 43 42 42 42 42 42 43 42 40 39 39 38 37 35 34 31 29 26 24 22 21 22 24 25
35 35 35 37 40 41 41 40 39 37 35 32 31 31 32 32 34 36 39 39 40 40 40 39 38 35 33 32 33 35 35 31 30 30 31 33 43 51 55 54 52 51 50 49 47 45 43 41 41 41 42 42 41 40 39 38 37 35 33 32 31 29 27 25 23 22 22 23 24
36 35 34 36 38 39 40 40 39 38 37 35 34 34 35 36 37 39 39 39 41 41 41 41 40 38 35 32 32 35 36 34 30 28 28 26 34 46 56 58 55 54 53 52 50 47 45 43 41 41 41 41 41 40 38 37 36 34 32 31 30 28 26 25 23 23 22 22 22
36 35 35 35 36 37 38 39 39 39 39 39 38 38 38 38 40 41 41 39 40 41 42 42 40 38 36 35 34 35 36 35 30 27 25 23 26 36 49 59 59 58 57 56 53 50 47 45 43 42 42 41 40 39 38 36 35 33 31 31 29 27 25 24 22 22 22 21 20
37 35 34 34 35 37 38 38 39 40 41 41 41 42 42 40 41 42 42 41 41 42 44 44 42 39 36 35 36 35 34 33 29 26 23 21 21 25 35 52 58 61 61 60 57 53 49 46 44 43 42 41 40 38 36 35 33 31 30 29 27 25 24 22 21 21 20 19 17
34 33 31 31 34 37 39 39 41 43 44 43 43 43 43 42 43 43 43 43 44 46 47 47 44 40 37 35 37 36 34 32 29 26 22 20 17 17 22 38 53 60 63 63 60 56 51 46 43 42 41 41 39 37 35 33 31 29 28 27 26 24 22 21 20 20 19 17 14
27 27 28 29 33 38 41 41 43 45 45 44 42 42 42 43 43 43 43 44 46 48 48 47 45 42 39 38 38 37 35 32 30 27 23 20 16 12 12 23 41 53 60 65 63 59 53 47 43 41 41 41 38 36 35 33 31 29 28 26 25 23 22 21 20 19 18 16 13
21 23 27 31 34 38 42 43 43 44 44 42 40 40 41 42 42 43 43 44 45 45 45 46 44 42 41 40 41 39 37 33 29 26 24 22 17 11 7 10 30 44 52 61 67 66 61 52 46 42 41 41 39 37 35 34 32 30 28 25 24 22 21 20 19 18 17 15 12
18 23 28 32 33 35 38 41 42 42 41 38 37 37 38 39 40 42 43 43 42 40 38 38 38 39 39 40 40 40 38 34 28 24 22 22 20 15 9 4 19 38 49 50 59 67 72 69 58 48 43 42 40 38 36 35 33 31 28 25 22 19 18 16 16 15 15 13 10
19 25 29 31 33 35 37 38 39 39 37 34 35 36 37 37 39 42 43 41 38 35 33 31 32 34 36 36 36 36 36 33 28 24 21 21 20 17 12 3 7 32 52 50 50 57 66 76 75 67 53 44 40 36 34 32 30 29 27 25 22 19 16 14 13 12 11 10 7
20 25 28 29 34 36 37 36 37 36 35 32 34 35 36 36 40 43 43 40 35 33 31 31 31 34 36 36 34 32 31 29 25 23 22 21 19 17 14 6 358 15 50 58 49 49 53 62 69 72 69 53 42 35 30 26 24 25 25 23 22 20 17 14 11 8 7 7 3
21 24 25 29 36 37 36 33 34 33 32 31 34 36 38 39 43 44 44 40 35 33 32 32 32 35 38 39 36 33 30 25 22 21 20 21 18 16 13 8 356 360 37 60 54 49 46 48 55 60 62 58 45 36 30 23 20 21 22 21 20 19 17 15 10 7 4 2 360
18 20 24 33 37 36 33 32 33 32 29 28 32 36 42 45 47 46 43 38 35 33 32 29 30 34 39 41 37 34 30 24 20 17 17 17 15 13 10 5 352 354 24 56 55 51 46 44 46 49 52 52 45 36 30 26 20 19 19 20 18 17 16 14 10 7 4 1 359
11 17 27 37 37 34 32 32 31 27 24 23 29 38 45 48 47 44 41 38 35 33 29 23 26 36 42 40 35 32 30 25 21 19 18 16 12 8 5 2 350 352 15 50 55 52 47 44 44 45 46 45 40 32 27 28 23 19 16 16 15 14 13 11 9 7 5 2 359
7 19 31 39 37 34 31 28 25 21 19 22 34 43 47 48 44 41 38 36 34 30 25 21 34 41 44 38 34 32 30 24 22 22 21 18 11 6 2 358 348 350 9 42 54 53 48 45 43 43 43 42 37 30 23 28 25 20 14 10 10 10 11 10 9 7 5 4 1
5 20 33 39 37 32 26 19 16 17 22 29 39 45 47 47 42 38 34 32 27 22 21 31 42 44 42 36 36 34 30 24 23 23 22 18 11 4 358 353 345 347 3 31 49 53 49 45 42 41 41 40 34 25 15 21 25 21 14 7 6 7 9 11 10 7 4 3 1
5 21 34 39 35 29 19 12 12 19 28 37 42 45 46 44 39 32 24 22 20 20 25 36 42 42 38 32 32 31 29 26 23 21 18 16 9 2 357 354 344 347 358 16 40 52 52 46 42 39 38 37 31 21 9 14 19 19 14 6 4 5 7 11 8 4 0 357 355
7 22 34 39 33 24 15 11 14 24 34 42 44 44 43 39 31 22 16 16 22 28 34 41 43 42 37 32 30 28 26 25 22 19 16 14 11 8 4 359 345 347 354 4 28 48 55 48 43 39 36 34 28 16 3 5 14 18 16 9 5 5 6 7 5 359 353 345 339
8 22 34 38 31 23 15 12 18 30 41 45 43 41 39 37 30 24 18 16 21 28 35 41 44 42 35 31 32 29 25 22 19 16 12 11 12 12 9 1 346 348 352 355 17 43 59 53 47 42 37 32 24 10 357 359 13 21 22 17 13 11 8 4 359 352 343 333 326
3 21 33 35 30 24 20 18 26 38 46 47 41 36 34 34 30 22 12 11 22 28 30 28 29 24 19 14 23 27 25 21 16 14 12 12 15 14 10 360 348 349 350 349 7 38 62 61 55 48 41 31 18 0 352 359 19 29 30 25 22 17 12 4 355 346 338 329 327
354 17 34 36 30 27 25 26 36 43 46 45 39 33 27 21 11 356 348 8 31 37 34 24 22 22 20 14 15 20 23 23 17 14 12 13 17 15 9 0 352 349 347 343 357 28 60 66 63 57 49 35 12 351 348 6 33 38 33 26 17 10 3 359 354 347 340 332 338
338 3 31 43 37 31 29 33 43 46 45 40 33 26 17 8 350 334 338 18 44 46 38 27 24 20 17 14 11 10 11 22 24 20 15 12 14 15 12 4 354 347 341 336 349 16 50 63 65 64 59 44 18 356 351 12 40 42 36 25 9 0 357 0 0 354 347 342 353
321 340 24 53 46 40 35 41 48 48 44 30 15 357 347 347 339 334 344 21 54 56 45 32 23 7 351 347 2 4 7 23 30 27 19 9 6 14 17 9 354 342 335 332 344 8 38 52 61 65 65 55 30 8 359 14 38 41 35 23 5 354 352 359 4 359 353 350 359
307 313 17 67 62 54 49 49 50 48 38 15 355 345 341 346 335 331 337 9 66 79 69 48 21 349 332 352 23 21 17 18 24 25 20 7 3 12 18 12 348 334 329 330 342 4 29 40 51 61 66 63 42 17 5 12 35 39 34 22 10 356 348 352 0 0 356 351 359
294 291 343 80 73 67 61 55 44 27 348 348 355 352 348 341 323 320 323 347 79 103 93 75 32 358 1 26 35 29 20 13 12 13 12 3 1 8 12 5 340 328 326 329 342 2 22 31 39 52 65 69 53 27 10 7 27 31 27 19 15 4 354 348 354 357 355 349 353
285 284 60 72 72 71 67 59 5 313 296 303 312 313 311 314 317 322 329 350 33 67 71 65 41 27 28 35 38 32 23 12 3 359 357 355 354 359 1 352 334 325 325 329 341 360 18 26 27 38 54 72 61 37 17 4 17 24 23 17 13 8 0 352 352 353 352 345 343